Naples, Italy

1:26 AM CEST on September 30, 2016 (GMT +0200)
Capodichino Mil

Weather History for LIRN - January, 2014

Change the Weather History Date:

Tuesday, January 21, 2014

  Actual Average Record
Temperature  
Mean Temperature 52 °F -  
Max Temperature 56 °F 53 °F 62 °F (1997)
Min Temperature 49 °F 40 °F 33 °F (2002)
Degree Days  
Heating Degree Days 12    
Growing Degree Days 2 (Base 50)    
Moisture  
Dew Point 48 °F    
Average Humidity 82    
Maximum Humidity 94    
Minimum Humidity 71    
Precipitation  
Precipitation 0.00 in - - ()
Sea Level Pressure  
Sea Level Pressure 29.62 in    
Wind  
Wind Speed 8 mph ()    
Max Wind Speed 18 mph    
Max Gust Speed 31 mph    
Visibility 5.5 miles    
Events Rain    
Averages and records for this station are not official NWS values.
T = Trace of Precipitation, MM = Missing Value Source: Averaged Metar Reports

Daily Weather History Graph

Daily Weather History Graph

Search for Another Location

Airport or City:

Trip Planner

Search our weather history database for the weather conditions in past years. The results will help you decide how hot, cold, wet, or windy it might be!

Date:

Astronomy

Jan. 21, 2014 Rise Set
Actual Time 7:22 AM CET 5:06 PM CET
Civil Twilight 6:52 AM CET 5:36 PM CET
Nautical Twilight 6:18 AM CET 6:09 PM CET
Astronomical Twilight 5:46 AM CET 6:42 PM CET
Moon 10:24 PM CET (1/21) 9:40 AM CET (1/21)
Length of Visible Light 10h 43m
Length of Day
9h 44m
Waning Gibbous, 77% of the Moon is Illuminated
Jan 21
Waning Gibbous
Jan 24
Last Quarter
Jan 30
New
Feb 6
First Quarter
Feb 15
Full

Hourly Weather History & Observations

Time (CET) Temp. Dew Point Humidity Pressure Visibility Wind Dir Wind Speed Gust Speed Precip Events Conditions
12:20 AM 53.6 °F 50.0 °F 88% 29.50 in 6.2 mi SSW 5.8 mph - N/A   Mostly Cloudy
12:50 AM 55.4 °F 50.0 °F 82% 29.50 in 5.0 mi SSW 9.2 mph - N/A Rain Light Rain
1:00 AM 54 °F 47 °F 71% 29.52 in 5 mi SSW 11.5 mph - - Rain Light Rain
1:20 AM 53.6 °F 48.2 °F 82% 29.50 in 5.0 mi SSW 5.8 mph - N/A   Mostly Cloudy
1:50 AM 51.8 °F 48.2 °F 88% 29.50 in 5.0 mi WSW 15.0 mph - N/A Rain Rain
2:20 AM 53.6 °F 48.2 °F 82% 29.50 in 6.2 mi SW 9.2 mph - N/A   Mostly Cloudy
2:50 AM 51.8 °F 46.4 °F 82% 29.53 in 6.2 mi SW 10.4 mph - N/A Rain Light Rain
3:20 AM 51.8 °F 48.2 °F 88% 29.53 in 6.2 mi SW 8.1 mph - N/A Rain Light Rain
3:50 AM 51.8 °F 46.4 °F 82% 29.53 in 6.2 mi SW 9.2 mph - N/A Rain Light Rain
4:00 AM 51 °F 47 °F 81% 29.54 in 6 mi SSW 6.9 mph - - Rain Light Rain
4:20 AM 50.0 °F 46.4 °F 87% 29.53 in 6.2 mi South 4.6 mph - N/A Rain Light Rain
4:50 AM 50.0 °F 46.4 °F 87% 29.53 in 6.2 mi South 5.8 mph - N/A Rain Light Rain
5:20 AM 50.0 °F 48.2 °F 94% 29.53 in 3.7 mi SSW 5.8 mph - N/A Rain Rain
5:50 AM 50.0 °F 48.2 °F 94% 29.53 in 3.7 mi SSW 4.6 mph - N/A Rain Rain
6:20 AM 50.0 °F 48.2 °F 94% 29.53 in 3.7 mi SSW 3.5 mph - N/A Rain Rain
6:50 AM 50.0 °F 48.2 °F 94% 29.53 in 3.7 mi South 4.6 mph - N/A Rain Rain
7:00 AM 50 °F 47 °F 88% 29.56 in 4 mi SSE 4.6 mph - - Rain Rain
7:20 AM 50.0 °F 48.2 °F 94% 29.56 in 3.7 mi Variable 2.3 mph - N/A Rain Light Rain
7:50 AM 50.0 °F 48.2 °F 94% 29.56 in 1.6 mi Variable 2.3 mph - N/A Rain Rain
8:20 AM 51.8 °F 48.2 °F 88% 29.56 in 1.9 mi SW 11.5 mph - N/A Rain Rain
8:50 AM 51.8 °F 48.2 °F 88% 29.56 in 2.2 mi WSW 13.8 mph - N/A Rain Rain
9:20 AM 51.8 °F 46.4 °F 82% 29.56 in 2.5 mi WSW 18.4 mph 31.1 mph N/A Rain Rain
9:50 AM 53.6 °F 48.2 °F 82% 29.56 in 2.5 mi SW 11.5 mph - N/A Rain Light Rain
10:00 AM 53 °F 48 °F 77% 29.59 in 4 mi SW 11.5 mph - - Rain Rain
10:20 AM 55.4 °F 48.2 °F 77% 29.56 in 3.7 mi SSW 9.2 mph - N/A Rain Light Rain
10:50 AM 53.6 °F 48.2 °F 82% 29.56 in 2.5 mi SW 12.7 mph - N/A Rain Rain
11:20 AM 55.4 °F 50.0 °F 82% 29.56 in 3.7 mi SW 13.8 mph - N/A Rain Light Rain
11:50 AM 55.4 °F 50.0 °F 82% 29.56 in 6.2 mi SW 12.7 mph - N/A   Mostly Cloudy
12:20 PM 53.6 °F 48.2 °F 82% 29.59 in 6.2 mi WSW 13.8 mph - N/A   Mostly Cloudy
12:50 PM 53.6 °F 48.2 °F 82% 29.59 in 6.2 mi West 10.4 mph - N/A   Mostly Cloudy
1:00 PM 54 °F 48 °F 74% 29.61 in 6 mi West 10.4 mph - -   Mostly Cloudy
1:20 PM 53.6 °F 48.2 °F 82% 29.59 in 6.2 mi West 8.1 mph - N/A   Mostly Cloudy
1:50 PM 53.6 °F 48.2 °F 82% 29.59 in 6.2 mi West 9.2 mph - N/A   Mostly Cloudy
2:20 PM 55.4 °F 48.2 °F 77% 29.62 in 6.2 mi West 6.9 mph - N/A   Mostly Cloudy
2:50 PM 55.4 °F 48.2 °F 77% 29.62 in 6.2 mi WSW 6.9 mph - N/A   Mostly Cloudy
3:20 PM 55.4 °F 48.2 °F 77% 29.62 in 6.2 mi SW 5.8 mph - N/A   Mostly Cloudy
3:50 PM 55.4 °F 48.2 °F 77% 29.65 in 6.2 mi SSW 3.5 mph - N/A   Mostly Cloudy
4:00 PM 55 °F 49 °F 72% 29.66 in 6 mi SSW 4.6 mph - -   Mostly Cloudy
4:20 PM 55.4 °F 46.4 °F 72% 29.65 in 6.2 mi West 9.2 mph - N/A   Mostly Cloudy
4:50 PM 53.6 °F 46.4 °F 77% 29.68 in 6.2 mi West 8.1 mph - N/A   Scattered Clouds
5:20 PM 53.6 °F 48.2 °F 82% 29.68 in 6.2 mi West 9.2 mph - N/A   Scattered Clouds
5:50 PM 53.6 °F 46.4 °F 77% 29.68 in 6.2 mi West 8.1 mph - N/A   Scattered Clouds
6:20 PM 53.6 °F 46.4 °F 77% 29.71 in 6.2 mi West 9.2 mph - N/A   Scattered Clouds
6:50 PM 55.4 °F 48.2 °F 77% 29.71 in 6.2 mi West 10.4 mph - N/A   Scattered Clouds
7:00 PM 55 °F 48 °F 71% 29.73 in 12 mi West 12.7 mph - -   Mostly Cloudy
7:20 PM 53.6 °F 48.2 °F 82% 29.74 in 6.2 mi West 13.8 mph - N/A   Scattered Clouds
7:50 PM 53.6 °F 48.2 °F 82% 29.74 in 6.2 mi West 6.9 mph - N/A   Light Drizzle
8:20 PM 53.6 °F 48.2 °F 82% 29.74 in 6.2 mi WNW 9.2 mph - N/A   Light Drizzle
8:50 PM 53.6 °F 48.2 °F 82% 29.77 in 6.2 mi West 6.9 mph - N/A   Light Drizzle
9:20 PM 53.6 °F 48.2 °F 82% 29.77 in 6.2 mi NW 8.1 mph - N/A   Light Drizzle
9:50 PM 51.8 °F 46.4 °F 82% 29.77 in 6.2 mi West 9.2 mph - N/A Rain Light Rain
10:00 PM 52 °F 47 °F 79% 29.80 in 12 mi West 10.4 mph - - Rain Light Rain
10:20 PM 51.8 °F 46.4 °F 82% 29.80 in 6.2 mi West 11.5 mph - N/A Rain Light Rain
10:50 PM 51.8 °F 46.4 °F 82% 29.80 in 6.2 mi WNW 10.4 mph - N/A Rain Light Rain
11:20 PM 51.8 °F 48.2 °F 88% 29.80 in 6.2 mi West 9.2 mph - N/A Rain Light Rain
11:50 PM 51.8 °F 46.4 °F 82% 29.80 in 6.2 mi West 5.8 mph - N/A Rain Light Rain